Location: Most
(50.5133°N, 13.6207°E)
Time: 02:44:54
(UTC+01:00)

Oscar 11 - Pass Details

Date: 04 December 2021
Orbit: 611 x 625 km, 97.6° (Epoch: 17 January)

Event Time Altitude Azimuth Distance (km) Brightness Sun altitude
Rises 05:53:57 0° 11° (N) 2,921 10.5 -17.3°
Reaches altitude 10° 05:56:09 10° 9° (N) 2,007 9.6 -16.9°
Maximum altitude 06:00:30 70° 287° (WNW) 665 6.9 -16.3°
Drops below altitude 10° 06:04:48 10° 204° (SSW) 1,983 9.6 -15.6°
Sets 06:06:59 0° 202° (SSW) 2,882 10.4 -15.3°
